User: anonymous   Login
Location: Kalberh�ni
(46.4610°N, 7.2453°E)
Time: 21:16:16
(UTC+00:00)
Language:

DMSP BIV-2 Rocket - Orbit

View from above orbital plane
View from above orbital plane
View from above satellite
View from above satellite

Ground track
Ground track

The orbit data is extracted from the following two-line orbital elements,

1 02741U 67010B   22021.58166398  .00000049  00000-0  38189-4 0  9997
2 02741  98.9364 278.7745 0052507 272.6548  86.8623 14.28013909855758
Epoch (UTC): 21 January 2022 13:57:35
Eccentricity: 0.0052507
inclination: 98.9364°
perigee height: 760 km
apogee height: 836 km
right ascension of ascending node: 278.7745°
argument of perigee: 272.6548°
revolutions per day: 14.28013909
mean anomaly at epoch: 86.8623°
orbit number at epoch: 85575

The dashed part of the orbit path shows where the satellite is in the earth's shadow,  

DLR